M I D A S
Marine Information and Data Acquisition System
Tripno 1006 of the Zeeleeuw from 2005-08-29 10:29:05 to 2005-08-29 15:20:27
Back to CruiseResearch ActivitiesStationsMapUnderway DataData graphs

EquipmentUnitsComments
TimeDGPSUTC
LatitudeDGPSDM.mWGS84
LongitudeDGPSDM.mWGS84
SpeedMeteo Stationm/sRelative wind speed
DirectionMeteo StationdegRelative wind direction
TemperatureMeteo Stationdeg CelciusAir temperature
PressureMeteo StationPaAtmospheric pressure
HumidityMeteo Station%Relative humidity
Missing or incorrect values are displayed as -999
Metereological data collected by the RV Zeeleeuw from 2005-08-29 06:28:51 to 2005-08-29 15:33:22
                                                                                    Next 1000 lines
Time Latitude Longitude Speed Direction Temperature Pressure Humidity
2005-08-29 06:29:01 51°13.596 2°56.094 1.9 58 15.5 102200 76
2005-08-29 06:29:06 51°13.596 2°56.095 2.2 83 15.5 102200 76
2005-08-29 06:29:10 51°13.596 2°56.095 2.1 74 15.5 102200 76
2005-08-29 06:29:15 51°13.596 2°56.095 2 78 15.5 102200 76
2005-08-29 06:29:21 51°13.596 2°56.095 1.6 78 15.5 102200 76
2005-08-29 06:29:26 51°13.596 2°56.095 2.3 67 15.5 102200 76
2005-08-29 06:29:30 51°13.596 2°56.095 1.7 85 15.5 102200 76
2005-08-29 06:29:36 51°13.596 2°56.095 1.8 82 15.5 102200 76
2005-08-29 06:29:41 51°13.596 2°56.094 1.9 62 15.5 102200 76
2005-08-29 06:29:46 51°13.596 2°56.094 2.1 61 15.5 102200 76
2005-08-29 06:29:51 51°13.596 2°56.094 2.4 49 15.5 102200 76
2005-08-29 06:29:56 51°13.596 2°56.094 1.7 117 15.5 102200 76
2005-08-29 06:30:01 51°13.596 2°56.094 1.8 79 15.5 102200 76
2005-08-29 06:30:06 51°13.596 2°56.094 1.4 90 15.5 102200 76
2005-08-29 06:30:11 51°13.596 2°56.094 1.5 71 15.5 102200 76
2005-08-29 06:30:16 51°13.596 2°56.094 1.3 63 15.5 102200 76
2005-08-29 06:30:21 51°13.596 2°56.094 1.3 74 15.5 102200 76
2005-08-29 06:30:26 51°13.596 2°56.094 1.4 67 15.5 102200 76
2005-08-29 06:30:31 51°13.596 2°56.094 1.6 80 15.5 102200 76
2005-08-29 06:30:36 51°13.596 2°56.094 1.5 63 15.5 102210 76
2005-08-29 06:30:41 51°13.596 2°56.094 1.5 62 15.5 102210 76
2005-08-29 06:30:46 51°13.596 2°56.094 1.9 52 15.5 102200 76
2005-08-29 06:30:51 51°13.596 2°56.094 1.5 64 15.5 102200 76
2005-08-29 06:30:56 51°13.596 2°56.094 1.2 71 15.5 102200 76
2005-08-29 06:31:01 51°13.596 2°56.094 1.8 59 15.5 102200 76
2005-08-29 06:31:06 51°13.597 2°56.094 2 59 15.5 102200 76
2005-08-29 06:31:11 51°13.597 2°56.094 1.4 71 15.5 102200 76
2005-08-29 06:31:16 51°13.596 2°56.093 1.2 94 15.5 102200 76
2005-08-29 06:31:22 51°13.597 2°56.094 1.5 89 15.5 102200 76
2005-08-29 06:31:26 51°13.597 2°56.094 2.2 71 15.5 102210 76
2005-08-29 06:31:31 51°13.597 2°56.094 2.2 78 15.5 102210 76
2005-08-29 06:31:36 51°13.597 2°56.095 2.3 58 15.5 102200 76
2005-08-29 06:31:41 51°13.597 2°56.095 1.7 72 15.5 102200 76
2005-08-29 06:31:47 51°13.597 2°56.094 2 67 15.5 102210 76
2005-08-29 06:31:51 51°13.597 2°56.094 2.4 69 15.5 102210 76
2005-08-29 06:31:56 51°13.597 2°56.095 2.5 69 15.5 102200 76
2005-08-29 06:32:01 51°13.598 2°56.095 2.1 65 15.5 102200 76
2005-08-29 06:32:06 51°13.598 2°56.095 1.8 58 15.5 102200 76
2005-08-29 06:32:11 51°13.598 2°56.095 2 78 15.5 102200 76
2005-08-29 06:32:16 51°13.598 2°56.095 2.1 72 15.5 102210 76
2005-08-29 06:32:21 51°13.598 2°56.095 1.7 68 15.5 102210 76
2005-08-29 06:32:26 51°13.598 2°56.095 1.7 95 15.5 102210 76
2005-08-29 06:32:31 51°13.598 2°56.095 1.9 73 15.5 102210 76
2005-08-29 06:32:36 51°13.598 2°56.095 1.9 73 15.5 102200 76
2005-08-29 06:32:41 51°13.598 2°56.095 1.8 55 15.5 102200 76
2005-08-29 06:32:46 51°13.598 2°56.095 1.9 63 15.5 102210 76
2005-08-29 06:32:51 51°13.598 2°56.095 2.5 76 15.5 102210 76
2005-08-29 06:32:56 51°13.598 2°56.095 2.2 71 15.5 102210 76
2005-08-29 06:33:01 51°13.599 2°56.095 2.1 48 15.5 102210 76
2005-08-29 06:33:06 51°13.599 2°56.095 1.9 49 15.5 102200 76
2005-08-29 06:33:11 51°13.598 2°56.095 1.8 53 15.5 102200 76
2005-08-29 06:33:16 51°13.598 2°56.095 2.3 83 15.5 102210 76
2005-08-29 06:33:21 51°13.598 2°56.095 2.2 67 15.5 102210 76
2005-08-29 06:33:26 51°13.598 2°56.095 2 56 15.6 102210 76
2005-08-29 06:33:31 51°13.598 2°56.095 2 56 15.6 102210 76
2005-08-29 06:33:36 51°13.598 2°56.095 1.9 71 15.6 102210 76
2005-08-29 06:33:41 51°13.598 2°56.095 2.1 70 15.6 102210 76
2005-08-29 06:33:47 51°13.598 2°56.095 2.5 61 15.5 102210 76
2005-08-29 06:33:51 51°13.598 2°56.095 2.6 54 15.5 102210 76
2005-08-29 06:33:56 51°13.598 2°56.095 2.3 72 15.5 102200 76
2005-08-29 06:34:01 51°13.598 2°56.095 1.8 96 15.5 102200 76
2005-08-29 06:34:06 51°13.598 2°56.095 2.1 79 15.5 102210 75
2005-08-29 06:34:11 51°13.598 2°56.095 1.9 71 15.5 102210 75
2005-08-29 06:34:16 51°13.598 2°56.095 1.6 62 15.5 102210 75
2005-08-29 06:34:21 51°13.598 2°56.095 2.3 59 15.5 102210 75
2005-08-29 06:34:26 51°13.598 2°56.095 1.9 79 15.5 102210 75
2005-08-29 06:34:31 51°13.598 2°56.095 1.9 73 15.5 102210 75
2005-08-29 06:34:36 51°13.599 2°56.095 1.7 73 15.5 102210 75
2005-08-29 06:34:41 51°13.598 2°56.095 1.8 72 15.5 102210 75
2005-08-29 06:34:46 51°13.598 2°56.095 1.9 65 15.6 102210 75
2005-08-29 06:34:51 51°13.598 2°56.095 2 62 15.6 102210 75
2005-08-29 06:34:56 51°13.598 2°56.095 2.1 65 15.5 102210 75
2005-08-29 06:35:01 51°13.598 2°56.095 1.5 83 15.5 102210 75
2005-08-29 06:35:06 51°13.598 2°56.095 1.6 56 15.6 102210 75
2005-08-29 06:35:11 51°13.598 2°56.095 2 62 15.6 102210 75
2005-08-29 06:35:16 51°13.598 2°56.095 1.6 63 15.6 102210 75
2005-08-29 06:35:21 51°13.598 2°56.095 2.4 68 15.6 102210 75
2005-08-29 06:35:25 51°13.598 2°56.094 2.4 58 15.6 102210 75
2005-08-29 06:35:31 51°13.598 2°56.094 2.5 61 15.6 102210 75
2005-08-29 06:35:37 51°13.598 2°56.094 2.2 74 15.6 102210 76
2005-08-29 06:35:41 51°13.598 2°56.094 1 90 15.6 102210 76
2005-08-29 06:35:46 51°13.598 2°56.094 1.2 74 15.6 102210 76
2005-08-29 06:35:51 51°13.598 2°56.094 1.7 58 15.6 102210 76
2005-08-29 06:35:56 51°13.598 2°56.094 1.7 52 15.6 102210 76
2005-08-29 06:36:01 51°13.598 2°56.094 1.7 32 15.6 102210 76
2005-08-29 06:36:06 51°13.598 2°56.094 1.1 85 15.6 102210 75
2005-08-29 06:36:11 51°13.598 2°56.093 1.1 81 15.6 102210 75
2005-08-29 06:36:16 51°13.598 2°56.094 0.8 82 15.6 102210 75
2005-08-29 06:36:21 51°13.598 2°56.094 1.9 76 15.6 102210 75
2005-08-29 06:36:26 51°13.598 2°56.094 2 76 15.6 102210 75
2005-08-29 06:36:31 51°13.598 2°56.094 1.7 64 15.6 102210 75
2005-08-29 06:36:36 51°13.598 2°56.094 1.8 59 15.6 102210 76
2005-08-29 06:36:41 51°13.598 2°56.094 1.9 54 15.6 102210 76
2005-08-29 06:36:46 51°13.597 2°56.093 1.3 70 15.6 102210 76
2005-08-29 06:36:52 51°13.598 2°56.094 1.2 55 15.6 102210 76
2005-08-29 06:36:56 51°13.597 2°56.094 1.4 63 15.6 102210 76
2005-08-29 06:37:01 51°13.597 2°56.094 1.8 69 15.6 102210 76
2005-08-29 06:37:06 51°13.598 2°56.094 1.7 60 15.6 102210 76
2005-08-29 06:37:11 51°13.598 2°56.094 1.7 53 15.6 102210 76
2005-08-29 06:37:16 51°13.597 2°56.094 1.9 63 15.6 102210 76
2005-08-29 06:37:21 51°13.597 2°56.094 1.6 74 15.6 102210 76
2005-08-29 06:37:26 51°13.597 2°56.094 1.2 41 15.6 102210 76
2005-08-29 06:37:31 51°13.597 2°56.094 1.3 39 15.6 102210 76
2005-08-29 06:37:36 51°13.597 2°56.094 1.4 45 15.7 102210 76
2005-08-29 06:37:41 51°13.597 2°56.094 1.2 55 15.7 102210 76
2005-08-29 06:37:46 51°13.597 2°56.094 1.8 55 15.7 102210 76
2005-08-29 06:37:51 51°13.598 2°56.094 1.7 53 15.7 102210 76
2005-08-29 06:37:56 51°13.598 2°56.094 2.4 52 15.7 102210 76
2005-08-29 06:38:01 51°13.598 2°56.094 1.6 53 15.7 102210 76
2005-08-29 06:38:06 51°13.598 2°56.094 1.2 46 15.7 102210 76
2005-08-29 06:38:11 51°13.598 2°56.094 0.9 47 15.7 102210 76
2005-08-29 06:38:16 51°13.598 2°56.094 1.2 43 15.7 102210 76
2005-08-29 06:38:21 51°13.598 2°56.094 0.9 54 15.7 102210 76
2005-08-29 06:38:26 51°13.598 2°56.094 0.7 79 15.7 102210 76
2005-08-29 06:38:31 51°13.598 2°56.094 0.7 85 15.7 102210 76
2005-08-29 06:38:36 51°13.598 2°56.094 0.6 84 15.7 102210 76
2005-08-29 06:38:41 51°13.598 2°56.094 0.7 71 15.7 102210 76
2005-08-29 06:38:46 51°13.598 2°56.094 1.2 52 15.7 102210 76
2005-08-29 06:38:51 51°13.598 2°56.094 2 42 15.7 102210 76
2005-08-29 06:38:56 51°13.598 2°56.094 1.7 32 15.8 102210 76
2005-08-29 06:39:01 51°13.598 2°56.094 1.6 30 15.8 102210 76
2005-08-29 06:39:06 51°13.598 2°56.094 1.2 40 15.8 102210 76
2005-08-29 06:39:11 51°13.598 2°56.094 1 58 15.8 102210 76
2005-08-29 06:39:16 51°13.598 2°56.094 1.7 57 15.8 102210 76
2005-08-29 06:39:21 51°13.598 2°56.094 1.3 57 15.8 102210 76
2005-08-29 06:39:26 51°13.598 2°56.095 0.7 65 15.8 102210 75
2005-08-29 06:39:33 51°13.598 2°56.095 0.7 73 15.8 102210 75
2005-08-29 06:39:38 51°13.598 2°56.095 0.7 73 15.8 102210 75
2005-08-29 06:39:43 51°13.598 2°56.095 0.7 73 15.8 102210 75
2005-08-29 06:39:47 51°13.598 2°56.095 0.7 73 15.8 102210 75
2005-08-29 06:39:52 51°13.598 2°56.094 0.7 73 15.8 102210 75
2005-08-29 06:39:56 51°13.598 2°56.094 0.7 73 -999 -999 -999
2005-08-29 06:40:01 51°13.598 2°56.094 -999 -999 -999 -999 -999
2005-08-29 06:40:06 51°13.598 2°56.094 -999 -999 -999 -999 -999
2005-08-29 06:40:12 51°13.598 2°56.094 -999 52 -999 -999 -999
2005-08-29 06:40:16 51°13.598 2°56.095 2.3 56 -999 -999 -999
2005-08-29 06:40:21 51°13.598 2°56.095 2.5 59 -999 -999 -999
2005-08-29 06:40:26 51°13.598 2°56.095 2.1 59 -999 -999 -999
2005-08-29 06:40:31 51°13.598 2°56.095 1.6 58 -999 -999 -999
2005-08-29 06:40:36 51°13.598 2°56.095 1.5 58 15.8 -999 73
2005-08-29 06:40:41 51°13.598 2°56.095 1.1 78 15.8 -999 73
2005-08-29 06:40:46 51°13.598 2°56.095 1.3 75 15.8 -999 75
2005-08-29 06:40:51 51°13.599 2°56.095 1.3 75 15.8 -999 75
2005-08-29 06:40:56 51°13.599 2°56.095 0.6 107 15.8 102210 75
2005-08-29 06:41:01 51°13.599 2°56.095 0.6 92 15.8 102210 75
2005-08-29 06:41:06 51°13.599 2°56.095 1.2 47 15.8 102210 75
2005-08-29 06:41:12 51°13.599 2°56.095 1.1 42 15.8 102210 75
2005-08-29 06:41:16 51°13.599 2°56.095 0.9 52 15.8 102210 75
2005-08-29 06:41:21 51°13.599 2°56.095 1.1 55 15.8 102210 75
2005-08-29 06:41:26 51°13.599 2°56.095 1.6 54 15.9 102210 75
2005-08-29 06:41:31 51°13.599 2°56.095 1.2 57 15.9 102210 75
2005-08-29 06:41:36 51°13.599 2°56.095 0.9 61 15.9 102210 75
2005-08-29 06:41:41 51°13.599 2°56.095 1 60 15.9 102210 75
2005-08-29 06:41:46 51°13.599 2°56.095 1.5 62 15.8 102210 75
2005-08-29 06:41:51 51°13.598 2°56.095 1.5 52 15.8 102210 75
2005-08-29 06:41:56 51°13.598 2°56.095 1.2 52 15.9 102210 75
2005-08-29 06:42:01 51°13.598 2°56.095 1.7 51 15.9 102210 75
2005-08-29 06:42:06 51°13.598 2°56.095 1.6 50 15.9 102210 75
2005-08-29 06:42:11 51°13.598 2°56.094 1.3 69 15.9 102210 75
2005-08-29 06:42:16 51°13.598 2°56.094 0.9 68 15.9 102210 75
2005-08-29 06:42:21 51°13.598 2°56.094 0.7 62 15.9 102210 75
2005-08-29 06:42:26 51°13.598 2°56.094 0.9 81 15.9 102210 75
2005-08-29 06:42:32 51°13.598 2°56.094 1.1 84 15.9 102210 75
2005-08-29 06:42:36 51°13.598 2°56.094 1.6 78 15.9 102210 75
2005-08-29 06:42:41 51°13.598 2°56.095 1 80 15.9 102210 75
2005-08-29 06:42:46 51°13.598 2°56.095 1 47 15.9 102210 75
2005-08-29 06:42:52 51°13.598 2°56.095 1 70 15.9 102210 75
2005-08-29 06:42:56 51°13.599 2°56.095 1.7 59 15.9 102210 75
2005-08-29 06:43:01 51°13.599 2°56.095 1.5 51 15.9 102210 75
2005-08-29 06:43:06 51°13.599 2°56.095 1.6 55 15.9 102210 75
2005-08-29 06:43:12 51°13.599 2°56.095 1.4 62 15.9 102210 75
2005-08-29 06:43:16 51°13.599 2°56.095 1.5 77 15.9 102210 75
2005-08-29 06:43:21 51°13.599 2°56.095 1.4 64 15.9 102210 75
2005-08-29 06:43:26 51°13.599 2°56.095 1.3 58 15.9 102210 75
2005-08-29 06:43:31 51°13.599 2°56.095 1.3 61 15.9 102210 75
2005-08-29 06:43:36 51°13.599 2°56.095 0.9 62 15.9 102210 75
2005-08-29 06:43:41 51°13.599 2°56.095 1.4 79 15.9 102210 75
2005-08-29 06:43:46 51°13.599 2°56.095 1.2 76 15.9 102210 75
2005-08-29 06:43:51 51°13.599 2°56.095 1.2 76 15.9 102210 75
2005-08-29 06:43:56 51°13.599 2°56.095 1 75 15.9 102210 75
2005-08-29 06:44:01 51°13.599 2°56.095 1.3 54 15.9 102210 75
2005-08-29 06:44:06 51°13.599 2°56.095 1.5 65 16 102210 75
2005-08-29 06:44:11 51°13.599 2°56.095 1.6 60 16 102210 75
2005-08-29 06:44:16 51°13.599 2°56.095 1.5 60 16 102210 74
2005-08-29 06:44:21 51°13.599 2°56.095 1.3 61 16 102210 74
2005-08-29 06:44:26 51°13.599 2°56.095 1.3 64 16 102210 74
2005-08-29 06:44:31 51°13.599 2°56.095 1 82 16 102210 74
2005-08-29 06:44:36 51°13.599 2°56.095 1 60 16 102210 74
2005-08-29 06:44:41 51°13.599 2°56.095 1.1 61 16 102210 74
2005-08-29 06:44:46 51°13.599 2°56.095 1.8 55 16 102210 74
2005-08-29 06:44:51 51°13.599 2°56.095 1.8 56 16 102210 74
2005-08-29 06:44:56 51°13.599 2°56.095 1.3 55 16 102210 74
2005-08-29 06:45:01 51°13.599 2°56.095 1.4 55 16 102210 74
2005-08-29 06:45:06 51°13.599 2°56.095 1.7 58 16 102210 75
2005-08-29 06:45:11 51°13.599 2°56.095 1.8 54 16 102210 75
2005-08-29 06:45:16 51°13.599 2°56.095 1.9 63 16 102210 75
2005-08-29 06:45:21 51°13.598 2°56.095 1.8 68 16 102210 75
2005-08-29 06:45:26 51°13.598 2°56.095 1.6 61 16 102210 75
2005-08-29 06:45:32 51°13.599 2°56.095 1.7 62 16 102210 75
2005-08-29 06:45:36 51°13.599 2°56.095 2.6 54 16 102210 75
2005-08-29 06:45:41 51°13.599 2°56.095 1.8 64 16 102210 75
2005-08-29 06:45:46 51°13.599 2°56.095 1.8 54 16 102210 75
2005-08-29 06:45:51 51°13.599 2°56.095 1.7 54 16 102210 75
2005-08-29 06:45:57 51°13.599 2°56.095 1.6 53 16 102210 75
2005-08-29 06:46:01 51°13.599 2°56.095 1.3 60 16 102210 75
2005-08-29 06:46:06 51°13.599 2°56.095 1.5 63 16.1 102210 75
2005-08-29 06:46:11 51°13.599 2°56.095 1.4 63 16.1 102210 75
2005-08-29 06:46:17 51°13.599 2°56.095 1.2 63 16 102210 75
2005-08-29 06:46:21 51°13.599 2°56.095 1.3 74 16 102210 75
2005-08-29 06:46:26 51°13.599 2°56.095 1.1 64 16 102210 75
2005-08-29 06:46:31 51°13.599 2°56.096 1.4 57 16 102210 75
2005-08-29 06:46:37 51°13.599 2°56.096 1.8 56 16.1 102210 75
2005-08-29 06:46:41 51°13.599 2°56.096 1.9 56 16.1 102210 75
2005-08-29 06:46:46 51°13.599 2°56.096 2 53 16.1 102210 75
2005-08-29 06:46:51 51°13.599 2°56.096 1.7 62 16.1 102210 75
2005-08-29 06:46:56 51°13.599 2°56.096 1.7 71 16.1 102210 75
2005-08-29 06:47:01 51°13.599 2°56.096 1.5 65 16.1 102210 75
2005-08-29 06:47:06 51°13.599 2°56.096 1.8 53 16.1 102200 75
2005-08-29 06:47:11 51°13.599 2°56.096 1.6 53 16.1 102200 75
2005-08-29 06:47:16 51°13.599 2°56.095 1.6 56 16 102200 75
2005-08-29 06:47:22 51°13.599 2°56.095 2.3 52 16 102200 75
2005-08-29 06:47:26 51°13.599 2°56.095 1.6 50 16 102210 74
2005-08-29 06:47:31 51°13.599 2°56.095 1.5 65 16 102210 74
2005-08-29 06:47:36 51°13.599 2°56.095 1.5 73 16 102200 74
2005-08-29 06:47:41 51°13.598 2°56.095 1.8 67 16 102200 74
2005-08-29 06:47:46 51°13.598 2°56.095 1.6 74 16 102210 74
2005-08-29 06:47:51 51°13.598 2°56.095 1.3 70 16 102210 74
2005-08-29 06:47:56 51°13.598 2°56.095 1.5 61 16 102200 74
2005-08-29 06:48:01 51°13.598 2°56.095 1.7 45 16 102200 74
2005-08-29 06:48:06 51°13.598 2°56.095 1.6 69 16 102210 74
2005-08-29 06:48:11 51°13.598 2°56.095 1.7 59 16 102200 74
2005-08-29 06:48:16 51°13.598 2°56.095 1.7 57 16 102200 74
2005-08-29 06:48:21 51°13.598 2°56.095 2.2 71 16 102200 74
2005-08-29 06:48:26 51°13.598 2°56.095 1.9 59 16 102200 75
2005-08-29 06:48:31 51°13.597 2°56.095 1.7 63 16 102200 75
2005-08-29 06:48:36 51°13.597 2°56.095 1.4 62 16 102200 75
2005-08-29 06:48:41 51°13.597 2°56.095 1.4 60 16 102200 75
2005-08-29 06:48:46 51°13.597 2°56.094 1.6 58 16 102200 75
2005-08-29 06:48:51 51°13.597 2°56.095 1.3 63 16 102200 75
2005-08-29 06:48:56 51°13.597 2°56.095 1.6 68 16 102210 75
2005-08-29 06:49:01 51°13.597 2°56.095 1.2 77 16 102210 75
2005-08-29 06:49:06 51°13.597 2°56.094 1.2 64 16 102200 75
2005-08-29 06:49:11 51°13.597 2°56.094 1.7 51 16 102200 75
2005-08-29 06:49:16 51°13.597 2°56.095 1.6 46 16 102200 75
2005-08-29 06:49:21 51°13.597 2°56.095 1.7 44 16 102200 75
2005-08-29 06:49:26 51°13.597 2°56.095 1.3 88 16 102200 75
2005-08-29 06:49:31 51°13.597 2°56.095 1.8 52 16 102200 75
2005-08-29 06:49:36 51°13.597 2°56.095 1.6 42 16 102210 75
2005-08-29 06:49:41 51°13.597 2°56.095 2 49 16 102200 75
2005-08-29 06:49:46 51°13.597 2°56.095 1.9 51 16 102200 75
2005-08-29 06:49:51 51°13.597 2°56.095 2.1 71 16 102200 75
2005-08-29 06:49:56 51°13.597 2°56.094 1.8 70 16 102200 75
2005-08-29 06:50:01 51°13.597 2°56.094 1.9 64 16 102200 75
2005-08-29 06:50:06 51°13.597 2°56.094 1.4 65 16 102200 75
2005-08-29 06:50:11 51°13.598 2°56.094 1.4 55 16 102200 75
2005-08-29 06:50:16 51°13.598 2°56.095 1.1 75 16.1 102200 75
2005-08-29 06:50:21 51°13.598 2°56.095 0.9 74 16.1 102200 75
2005-08-29 06:50:26 51°13.597 2°56.094 1.1 36 16.1 102200 75
2005-08-29 06:50:31 51°13.598 2°56.095 1 36 16.1 102200 75
2005-08-29 06:50:37 51°13.598 2°56.095 0.8 46 16.1 102200 75
2005-08-29 06:50:41 51°13.598 2°56.095 1 55 16.1 102200 75
2005-08-29 06:50:46 51°13.598 2°56.095 1 84 16.1 102200 75
2005-08-29 06:50:51 51°13.598 2°56.095 1 93 16.1 102200 75
2005-08-29 06:50:57 51°13.598 2°56.095 1.1 71 16.1 102200 75
2005-08-29 06:51:01 51°13.598 2°56.095 1 70 16.1 102200 75
2005-08-29 06:51:06 51°13.598 2°56.095 1.3 44 16 102200 75
2005-08-29 06:51:11 51°13.598 2°56.095 1 45 16 102200 75
2005-08-29 06:51:16 51°13.598 2°56.095 1.5 44 16.1 102210 75
2005-08-29 06:51:21 51°13.598 2°56.095 1.7 23 16.1 102210 75
2005-08-29 06:51:26 51°13.598 2°56.095 1.6 44 16.1 102200 75
2005-08-29 06:51:31 51°13.598 2°56.095 1 43 16.1 102200 75
2005-08-29 06:51:36 51°13.598 2°56.095 1 36 16.1 102210 75
2005-08-29 06:51:41 51°13.598 2°56.095 1.2 42 16.1 102210 75
2005-08-29 06:51:46 51°13.598 2°56.095 1.9 59 16.1 102200 75
2005-08-29 06:51:51 51°13.598 2°56.095 2.1 39 16.1 102200 75
2005-08-29 06:51:56 51°13.598 2°56.095 1.5 39 16.1 102210 75
2005-08-29 06:52:01 51°13.598 2°56.096 2.3 54 16.1 102210 75
2005-08-29 06:52:06 51°13.598 2°56.096 2.1 63 16.1 102200 75
2005-08-29 06:52:11 51°13.598 2°56.096 1.6 65 16.1 102200 75
2005-08-29 06:52:16 51°13.599 2°56.096 1.8 70 16.1 102210 75
2005-08-29 06:52:21 51°13.599 2°56.096 1.9 77 16.1 102210 75
2005-08-29 06:52:26 51°13.599 2°56.096 1.8 79 16.1 102200 75
2005-08-29 06:52:31 51°13.599 2°56.096 1.6 76 16.1 102210 75
2005-08-29 06:52:37 51°13.599 2°56.096 2 78 16.1 102210 75
2005-08-29 06:52:41 51°13.599 2°56.096 1.9 76 16.1 102210 75
2005-08-29 06:52:46 51°13.599 2°56.096 1.9 39 16.1 102210 75
2005-08-29 06:52:51 51°13.599 2°56.096 2.2 48 16.1 102210 75
2005-08-29 06:52:56 51°13.599 2°56.096 1.3 59 16.1 102210 75
2005-08-29 06:53:01 51°13.598 2°56.096 1.6 59 16.1 102210 75
2005-08-29 06:53:06 51°13.598 2°56.096 1.4 58 16.2 102210 75
2005-08-29 06:53:11 51°13.598 2°56.096 1.6 54 16.2 102210 75
2005-08-29 06:53:16 51°13.598 2°56.095 1.1 49 16.1 102210 75
2005-08-29 06:53:21 51°13.598 2°56.095 1.5 47 16.1 102210 75
2005-08-29 06:53:26 51°13.598 2°56.095 1.2 63 16.1 102210 75
2005-08-29 06:53:31 51°13.598 2°56.095 1.1 65 16.1 102210 75
2005-08-29 06:53:36 51°13.598 2°56.094 1.2 63 16.1 102210 74
2005-08-29 06:53:41 51°13.597 2°56.094 1.3 47 16.1 102210 74
2005-08-29 06:53:46 51°13.598 2°56.095 1.3 46 16.1 102210 75
2005-08-29 06:53:51 51°13.598 2°56.094 2 59 16.1 102210 75
2005-08-29 06:53:56 51°13.598 2°56.094 1.5 68 16.1 102210 75
2005-08-29 06:54:01 51°13.598 2°56.094 1.5 80 16.1 102210 75
2005-08-29 06:54:06 51°13.598 2°56.094 1.5 97 16.2 102210 75
2005-08-29 06:54:11 51°13.598 2°56.094 1.7 97 16.2 102210 75
2005-08-29 06:54:16 51°13.598 2°56.095 1.1 78 16.2 102210 75
2005-08-29 06:54:21 51°13.598 2°56.094 1.1 43 16.2 102210 75
2005-08-29 06:54:26 51°13.598 2°56.094 1 42 16.2 102210 74
2005-08-29 06:54:31 51°13.598 2°56.094 0.9 53 16.2 102210 74
2005-08-29 06:54:37 51°13.598 2°56.094 1.2 82 16.2 102210 74
2005-08-29 06:54:41 51°13.598 2°56.094 1.4 64 16.2 102210 74
2005-08-29 06:54:46 51°13.598 2°56.094 1.2 61 16.2 102210 74
2005-08-29 06:54:51 51°13.598 2°56.094 0.9 60 16.2 102210 74
2005-08-29 06:54:56 51°13.598 2°56.094 1.1 67 16.2 102210 74
2005-08-29 06:55:01 51°13.598 2°56.094 1 67 16.2 102210 74
2005-08-29 06:55:06 51°13.598 2°56.094 1.8 85 16.2 102210 74
2005-08-29 06:55:11 51°13.598 2°56.094 1.4 43 16.2 102210 74
2005-08-29 06:55:16 51°13.598 2°56.094 1 36 16.2 102210 74
2005-08-29 06:55:21 51°13.598 2°56.094 1 58 16.2 102210 74
2005-08-29 06:55:26 51°13.597 2°56.094 0.7 61 16.2 102210 74
2005-08-29 06:55:31 51°13.597 2°56.094 0.8 59 16.2 102210 74
2005-08-29 06:55:36 51°13.597 2°56.094 0.9 61 16.2 102210 74
2005-08-29 06:55:41 51°13.597 2°56.094 1.1 65 16.2 102210 74
2005-08-29 06:55:46 51°13.597 2°56.094 1.4 89 16.2 102210 74
2005-08-29 06:55:51 51°13.597 2°56.094 1.6 89 16.2 102210 74
2005-08-29 06:55:57 51°13.597 2°56.094 1.1 73 16.2 102210 74
2005-08-29 06:56:01 51°13.597 2°56.094 1.4 93 16.2 102210 74
2005-08-29 06:56:06 51°13.597 2°56.094 1.4 68 16.3 102210 74
2005-08-29 06:56:11 51°13.597 2°56.094 1.5 43 16.3 102210 74
2005-08-29 06:56:16 51°13.597 2°56.094 1.4 44 16.2 102210 74
2005-08-29 06:56:21 51°13.597 2°56.094 1.3 47 16.2 102210 74
2005-08-29 06:56:26 51°13.597 2°56.094 1.1 46 16.3 102210 74
2005-08-29 06:56:31 51°13.597 2°56.095 1 47 16.3 102210 74
2005-08-29 06:56:36 51°13.598 2°56.095 1.4 61 16.3 102210 74
2005-08-29 06:56:41 51°13.598 2°56.094 1.6 65 16.3 102210 74
2005-08-29 06:56:46 51°13.598 2°56.094 1.9 66 16.3 102210 74
2005-08-29 06:56:51 51°13.598 2°56.095 1.8 67 16.3 102210 74
2005-08-29 06:56:56 51°13.598 2°56.095 2.1 71 16.3 102210 74
2005-08-29 06:57:01 51°13.598 2°56.094 2.1 72 16.3 102210 74
2005-08-29 06:57:06 51°13.598 2°56.095 1.6 76 16.3 102210 74
2005-08-29 06:57:11 51°13.598 2°56.094 1.7 76 16.3 102210 74
2005-08-29 06:57:16 51°13.598 2°56.094 1.7 65 16.3 102210 74
2005-08-29 06:57:21 51°13.598 2°56.095 2.2 70 16.3 102210 74
2005-08-29 06:57:26 51°13.598 2°56.094 1.7 75 16.3 102210 74
2005-08-29 06:57:31 51°13.598 2°56.094 1.9 74 16.3 102210 74
2005-08-29 06:57:37 51°13.598 2°56.094 1.6 63 16.3 102210 73
2005-08-29 06:57:41 51°13.598 2°56.094 1.4 68 16.3 102210 73
2005-08-29 06:57:46 51°13.598 2°56.094 1.6 49 16.3 102210 73
2005-08-29 06:57:51 51°13.598 2°56.094 2 45 16.3 102210 73
2005-08-29 06:57:56 51°13.598 2°56.094 1.6 54 16.3 102210 73
2005-08-29 06:58:01 51°13.598 2°56.094 1.4 38 16.3 102210 73
2005-08-29 06:58:06 51°13.598 2°56.094 1.9 36 16.3 102210 73
2005-08-29 06:58:11 51°13.598 2°56.095 1.9 33 16.3 102210 73
2005-08-29 06:58:16 51°13.598 2°56.094 1.7 58 16.3 102210 73
2005-08-29 06:58:21 51°13.598 2°56.094 1.7 63 16.3 102210 73
2005-08-29 06:58:26 51°13.598 2°56.094 1.2 66 16.3 102210 74
2005-08-29 06:58:31 51°13.598 2°56.094 1.8 43 16.3 102210 74
2005-08-29 06:58:36 51°13.598 2°56.095 1.8 40 16.3 102210 74
2005-08-29 06:58:41 51°13.598 2°56.094 1.7 42 16.3 102210 74
2005-08-29 06:58:46 51°13.598 2°56.095 1.3 39 16.3 102210 74
2005-08-29 06:58:51 51°13.598 2°56.095 1.6 38 16.3 102210 74
2005-08-29 06:58:56 51°13.598 2°56.094 1.6 38 16.3 102210 74
2005-08-29 06:59:01 51°13.598 2°56.094 1.4 41 16.3 102210 74
2005-08-29 06:59:06 51°13.598 2°56.095 1 41 16.3 102210 74
2005-08-29 06:59:11 51°13.598 2°56.094 0.7 41 16.3 102210 74
2005-08-29 06:59:16 51°13.598 2°56.093 0.8 42 16.3 102210 74
2005-08-29 06:59:21 51°13.598 2°56.093 0.8 47 16.3 102210 74
2005-08-29 06:59:26 51°13.598 2°56.094 1.6 47 16.3 102210 74
2005-08-29 06:59:31 51°13.598 2°56.093 1.7 45 16.3 102210 74
2005-08-29 06:59:36 51°13.598 2°56.094 1.5 46 16.3 102210 74
2005-08-29 06:59:41 51°13.598 2°56.094 1.1 51 16.3 102210 74
2005-08-29 06:59:46 51°13.598 2°56.094 0.6 62 16.3 102210 74
2005-08-29 06:59:51 51°13.598 2°56.094 1.2 79 16.3 102210 74
2005-08-29 06:59:56 51°13.598 2°56.094 0.9 45 16.3 102210 74
2005-08-29 07:00:01 51°13.598 2°56.094 1.3 38 16.3 102210 74
2005-08-29 07:00:06 51°13.598 2°56.094 1.5 44 16.3 102210 74
2005-08-29 07:00:11 51°13.598 2°56.094 1.4 72 16.3 102210 74
2005-08-29 07:00:16 51°13.598 2°56.094 1.2 75 16.3 102210 74
2005-08-29 07:00:21 51°13.598 2°56.094 1 75 16.3 102210 74
2005-08-29 07:00:26 51°13.598 2°56.094 1.2 68 16.3 102210 74
2005-08-29 07:00:31 51°13.598 2°56.094 1 66 16.3 102210 74
2005-08-29 07:00:36 51°13.598 2°56.094 0.8 66 16.3 102210 74
2005-08-29 07:00:41 51°13.598 2°56.094 1.1 55 16.3 102210 74
2005-08-29 07:00:46 51°13.598 2°56.094 1 55 16.3 102210 74
2005-08-29 07:00:51 51°13.598 2°56.094 0.7 55 16.3 102210 74
2005-08-29 07:00:56 51°13.598 2°56.094 0.7 55 16.3 102210 74
2005-08-29 07:01:01 51°13.598 2°56.094 1 83 16.3 102210 74
2005-08-29 07:01:06 51°13.598 2°56.094 1.3 77 16.3 102210 73
2005-08-29 07:01:11 51°13.598 2°56.094 1 73 16.3 102210 73
2005-08-29 07:01:16 51°13.599 2°56.094 0.7 75 16.3 102210 74
2005-08-29 07:01:21 51°13.599 2°56.094 0.6 74 16.3 102210 74
2005-08-29 07:01:26 51°13.599 2°56.094 0.5 66 16.3 102210 74
2005-08-29 07:01:31 51°13.599 2°56.094 1.4 44 16.3 102210 74
2005-08-29 07:01:36 51°13.599 2°56.094 1.5 45 16.3 102210 74
2005-08-29 07:01:41 51°13.599 2°56.094 1.3 56 16.3 102210 74
2005-08-29 07:01:46 51°13.599 2°56.094 1 64 16.3 102210 74
2005-08-29 07:01:51 51°13.599 2°56.094 0.9 63 16.3 102210 74
2005-08-29 07:01:56 51°13.599 2°56.094 0.7 64 16.3 102210 74
2005-08-29 07:02:01 51°13.599 2°56.095 0.6 63 16.3 102210 74
2005-08-29 07:02:06 51°13.599 2°56.094 1.2 62 16.3 102210 74
2005-08-29 07:02:11 51°13.599 2°56.095 1.1 56 16.3 102210 74
2005-08-29 07:02:16 51°13.599 2°56.095 0.8 56 16.3 102210 74
2005-08-29 07:02:21 51°13.599 2°56.095 1 65 16.3 102210 74
2005-08-29 07:02:26 51°13.599 2°56.095 1.2 65 16.3 102210 74
2005-08-29 07:02:31 51°13.599 2°56.095 1.7 67 16.3 102210 74
2005-08-29 07:02:37 51°13.599 2°56.095 2 63 16.3 102210 74
2005-08-29 07:02:41 51°13.599 2°56.095 1.3 60 16.3 102210 74
2005-08-29 07:02:46 51°13.599 2°56.095 1.4 57 16.4 102210 74
2005-08-29 07:02:51 51°13.599 2°56.095 1.5 72 16.4 102210 74
2005-08-29 07:02:56 51°13.599 2°56.095 2 71 16.3 102210 74
2005-08-29 07:03:01 51°13.598 2°56.095 1.9 74 16.3 102210 74
2005-08-29 07:03:06 51°13.598 2°56.095 1.6 75 16.3 102210 74
2005-08-29 07:03:11 51°13.598 2°56.095 1.4 59 16.3 102210 74
2005-08-29 07:03:16 51°13.598 2°56.095 1.2 52 16.4 102210 74
2005-08-29 07:03:21 51°13.598 2°56.095 1.3 52 16.4 102210 74
2005-08-29 07:03:26 51°13.598 2°56.096 1.6 72 16.4 102210 74
2005-08-29 07:03:31 51°13.598 2°56.095 1.6 69 16.4 102210 74
2005-08-29 07:03:36 51°13.597 2°56.095 1.8 69 16.3 102210 74
2005-08-29 07:03:41 51°13.597 2°56.096 1.3 63 16.3 102210 74
2005-08-29 07:03:46 51°13.597 2°56.095 1.4 68 16.3 102210 74
2005-08-29 07:03:51 51°13.597 2°56.095 1.3 84 16.3 102210 74
2005-08-29 07:03:56 51°13.596 2°56.095 1.1 68 16.3 102210 74
2005-08-29 07:04:01 51°13.596 2°56.095 1.2 68 16.3 102210 74
2005-08-29 07:04:06 51°13.597 2°56.095 1.3 68 16.3 102210 74
2005-08-29 07:04:11 51°13.597 2°56.095 1.2 69 16.3 102210 74
2005-08-29 07:04:16 51°13.597 2°56.095 1.3 68 16.3 102210 74
2005-08-29 07:04:21 51°13.596 2°56.095 1.4 59 16.3 102210 74
2005-08-29 07:04:26 51°13.596 2°56.095 1.8 83 16.3 102210 74
2005-08-29 07:04:31 51°13.597 2°56.095 1.2 79 16.3 102210 74
2005-08-29 07:04:37 51°13.597 2°56.095 1.3 67 16.3 102210 74
2005-08-29 07:04:41 51°13.597 2°56.095 1.2 67 16.3 102210 74
2005-08-29 07:04:46 51°13.597 2°56.095 1.5 65 16.3 102210 74
2005-08-29 07:04:51 51°13.597 2°56.095 1.4 67 16.3 102210 74
2005-08-29 07:04:56 51°13.597 2°56.094 1.2 95 16.3 102210 74
2005-08-29 07:05:01 51°13.597 2°56.094 1 95 16.3 102210 74
2005-08-29 07:05:06 51°13.597 2°56.095 0.9 95 16.3 102220 74
2005-08-29 07:05:11 51°13.597 2°56.095 1.1 69 16.3 102220 74
2005-08-29 07:05:16 51°13.597 2°56.095 1.5 49 16.3 102210 74
2005-08-29 07:05:21 51°13.597 2°56.095 1.3 49 16.3 102210 74
2005-08-29 07:05:26 51°13.596 2°56.094 1.2 49 16.3 102220 74
2005-08-29 07:05:31 51°13.596 2°56.094 1 50 16.3 102220 74
2005-08-29 07:05:36 51°13.596 2°56.094 0.9 51 16.3 102210 74
2005-08-29 07:05:41 51°13.596 2°56.094 0.8 54 16.3 102210 74
2005-08-29 07:05:46 51°13.596 2°56.094 1.2 30 16.3 102220 74
2005-08-29 07:05:51 51°13.596 2°56.094 1.3 33 16.3 102220 74
2005-08-29 07:05:56 51°13.596 2°56.094 1.2 41 16.3 102220 74
2005-08-29 07:06:01 51°13.596 2°56.094 1 41 16.3 102220 74
2005-08-29 07:06:06 51°13.596 2°56.094 1.2 43 16.3 102210 74
2005-08-29 07:06:11 51°13.596 2°56.094 1.5 50 16.3 102210 74
2005-08-29 07:06:16 51°13.596 2°56.094 1.4 76 16.3 102210 74
2005-08-29 07:06:21 51°13.596 2°56.094 1.6 80 16.3 102210 74
2005-08-29 07:06:26 51°13.596 2°56.094 2.1 69 16.3 102220 74
2005-08-29 07:06:31 51°13.596 2°56.094 1.3 72 16.3 102220 74
2005-08-29 07:06:36 51°13.596 2°56.094 1.5 71 16.3 102220 74
2005-08-29 07:06:41 51°13.597 2°56.095 1.5 44 16.3 102220 74
2005-08-29 07:06:46 51°13.597 2°56.095 1.7 55 16.4 102220 74
2005-08-29 07:06:51 51°13.597 2°56.095 2 57 16.4 102220 74
2005-08-29 07:06:56 51°13.597 2°56.095 2 57 16.4 102220 74
2005-08-29 07:07:01 51°13.598 2°56.095 1.5 74 16.4 102220 74
2005-08-29 07:07:06 51°13.597 2°56.095 2.1 46 16.4 102220 74
2005-08-29 07:07:11 51°13.597 2°56.094 1.8 50 16.4 102220 74
2005-08-29 07:07:16 51°13.597 2°56.094 1.6 60 16.3 102220 74
2005-08-29 07:07:21 51°13.598 2°56.095 2.5 73 16.3 102220 74
2005-08-29 07:07:26 51°13.597 2°56.094 2 79 16.4 102220 74
2005-08-29 07:07:31 51°13.597 2°56.094 1.5 79 16.4 102220 74
2005-08-29 07:07:36 51°13.597 2°56.094 1.6 58 16.4 102220 74
2005-08-29 07:07:41 51°13.597 2°56.094 1.1 55 16.4 102220 74
2005-08-29 07:07:46 51°13.597 2°56.095 1 55 16.4 102220 74
2005-08-29 07:07:51 51°13.598 2°56.095 1.3 79 16.4 102220 74
2005-08-29 07:07:56 51°13.598 2°56.094 1.7 48 16.4 102220 74
2005-08-29 07:08:01 51°13.598 2°56.095 1.8 51 16.4 102220 74
2005-08-29 07:08:06 51°13.598 2°56.095 1.9 55 16.4 102220 74
2005-08-29 07:08:11 51°13.598 2°56.095 1.7 55 16.4 102220 74
2005-08-29 07:08:16 51°13.598 2°56.095 1.4 50 16.4 102220 74
2005-08-29 07:08:21 51°13.598 2°56.095 1.4 74 16.4 102220 74
2005-08-29 07:08:26 51°13.598 2°56.095 0.9 79 16.4 102220 74
2005-08-29 07:08:31 51°13.598 2°56.094 0.8 86 16.4 102220 74
2005-08-29 07:08:36 51°13.598 2°56.094 0.6 87 16.4 102220 74
2005-08-29 07:08:41 51°13.598 2°56.094 1 85 16.4 102220 74
2005-08-29 07:08:46 51°13.598 2°56.094 1.4 69 16.4 102220 74
2005-08-29 07:08:51 51°13.598 2°56.095 1.7 56 16.4 102220 74
2005-08-29 07:08:56 51°13.597 2°56.094 1.9 68 16.4 102220 74
2005-08-29 07:09:01 51°13.597 2°56.094 1.9 65 16.4 102220 74
2005-08-29 07:09:06 51°13.597 2°56.094 1.9 63 16.4 102220 74
2005-08-29 07:09:11 51°13.596 2°56.094 1.4 70 16.4 102220 74
2005-08-29 07:09:16 51°13.596 2°56.094 1.4 66 16.4 102220 74
2005-08-29 07:09:21 51°13.596 2°56.094 1 64 16.4 102220 74
2005-08-29 07:09:26 51°13.596 2°56.094 0.6 63 16.4 102220 74
2005-08-29 07:09:31 51°13.594 2°56.094 0.6 66 16.4 102220 74
2005-08-29 07:09:37 51°13.594 2°56.094 0.6 66 16.4 102220 74
2005-08-29 07:09:41 51°13.594 2°56.094 0.9 63 16.4 102220 74
2005-08-29 07:09:46 51°13.595 2°56.095 1.3 67 16.4 102220 74
2005-08-29 07:09:51 51°13.596 2°56.095 1.2 55 16.4 102220 74
2005-08-29 07:09:56 51°13.596 2°56.094 0.9 65 16.4 102220 74
2005-08-29 07:10:01 51°13.597 2°56.095 0.9 66 16.4 102220 74
2005-08-29 07:10:06 51°13.597 2°56.094 1 73 16.4 102220 74
2005-08-29 07:10:11 51°13.597 2°56.094 0.5 71 16.4 102220 74
2005-08-29 07:10:16 51°13.597 2°56.095 1 74 16.4 102230 74
2005-08-29 07:10:21 51°13.596 2°56.094 1.5 143 16.4 102230 74
2005-08-29 07:10:26 51°13.595 2°56.094 1 129 16.4 102230 74
2005-08-29 07:10:31 51°13.595 2°56.094 0.9 131 16.4 102230 74
2005-08-29 07:10:36 51°13.595 2°56.094 0.8 131 16.4 102230 74
2005-08-29 07:10:41 51°13.595 2°56.094 0.6 126 16.4 102230 74
2005-08-29 07:10:46 51°13.595 2°56.094 0.4 129 16.4 102220 74
2005-08-29 07:10:51 51°13.596 2°56.094 0.6 129 16.4 102220 74
2005-08-29 07:10:56 51°13.596 2°56.094 0.6 52 16.5 102230 74
2005-08-29 07:11:01 51°13.596 2°56.094 0.5 53 16.5 102230 74
2005-08-29 07:11:06 51°13.596 2°56.094 0.9 51 16.5 102230 74
2005-08-29 07:11:11 51°13.596 2°56.094 1.4 36 16.5 102230 74
2005-08-29 07:11:16 51°13.596 2°56.094 1.2 27 16.5 102230 74
2005-08-29 07:11:21 51°13.596 2°56.094 1.1 27 16.5 102230 74
2005-08-29 07:11:26 51°13.595 2°56.094 1 28 16.5 102230 74
2005-08-29 07:11:31 51°13.595 2°56.094 0.8 38 16.5 102230 74
2005-08-29 07:11:37 51°13.595 2°56.093 1.1 66 16.5 102230 74
2005-08-29 07:11:41 51°13.595 2°56.093 1.8 66 16.5 102230 74
2005-08-29 07:11:46 51°13.595 2°56.094 1.7 68 16.5 102230 74
2005-08-29 07:11:51 51°13.595 2°56.093 1.3 69 16.5 102230 74
2005-08-29 07:11:56 51°13.596 2°56.094 1.4 66 16.5 102230 74
2005-08-29 07:12:01 51°13.596 2°56.094 1.4 50 16.5 102230 74
2005-08-29 07:12:06 51°13.596 2°56.094 1.5 56 16.5 102230 74
2005-08-29 07:12:11 51°13.596 2°56.094 1.7 58 16.5 102230 74
2005-08-29 07:12:16 51°13.596 2°56.094 1.4 59 16.5 102230 73
2005-08-29 07:12:21 51°13.596 2°56.094 1.3 57 16.5 102230 73
2005-08-29 07:12:26 51°13.596 2°56.094 1.7 49 16.5 102230 73
2005-08-29 07:12:31 51°13.596 2°56.095 1.7 53 16.5 102230 73
2005-08-29 07:12:36 51°13.596 2°56.095 2.1 53 16.5 102230 73
2005-08-29 07:12:41 51°13.596 2°56.095 1.4 69 16.5 102230 73
2005-08-29 07:12:46 51°13.596 2°56.095 1.1 77 16.5 102230 73
2005-08-29 07:12:51 51°13.597 2°56.095 1.1 111 16.5 102230 73
2005-08-29 07:12:56 51°13.597 2°56.095 1.1 112 16.5 102230 73
2005-08-29 07:13:01 51°13.596 2°56.095 1.1 112 16.5 102230 73
2005-08-29 07:13:06 51°13.596 2°56.095 1 107 16.6 102230 73
2005-08-29 07:13:11 51°13.597 2°56.095 1 99 16.6 102230 73
2005-08-29 07:13:16 51°13.597 2°56.095 0.5 98 16.5 102230 73
2005-08-29 07:13:21 51°13.597 2°56.095 0.3 110 16.5 102230 73
2005-08-29 07:13:26 51°13.597 2°56.095 1.3 67 16.5 102230 73
2005-08-29 07:13:31 51°13.597 2°56.095 1 40 16.5 102230 73
2005-08-29 07:13:37 51°13.597 2°56.095 1.8 38 16.6 102230 73
2005-08-29 07:13:41 51°13.597 2°56.095 1.7 43 16.6 102230 73
2005-08-29 07:13:46 51°13.598 2°56.095 1.6 37 16.6 102230 73
2005-08-29 07:13:51 51°13.598 2°56.095 1.7 38 16.6 102230 73
2005-08-29 07:13:57 51°13.598 2°56.095 1.5 40 16.6 102230 73
2005-08-29 07:14:01 51°13.598 2°56.095 2.1 40 16.6 102230 73
2005-08-29 07:14:06 51°13.598 2°56.095 2.2 45 16.6 102230 73
2005-08-29 07:14:11 51°13.598 2°56.095 2.2 46 16.6 102230 73
2005-08-29 07:14:16 51°13.598 2°56.095 2 70 16.6 102230 73
2005-08-29 07:14:21 51°13.598 2°56.095 1.3 62 16.6 102230 73
2005-08-29 07:14:26 51°13.598 2°56.094 1.2 63 16.6 102230 73
2005-08-29 07:14:31 51°13.598 2°56.094 1.5 82 16.6 102230 73
2005-08-29 07:14:36 51°13.598 2°56.094 1.3 81 16.6 102230 73
2005-08-29 07:14:41 51°13.598 2°56.094 0.8 95 16.6 102230 73
2005-08-29 07:14:46 51°13.598 2°56.094 0.7 96 16.6 102230 73
2005-08-29 07:14:51 51°13.598 2°56.094 0.6 100 16.6 102230 73
2005-08-29 07:14:56 51°13.598 2°56.094 0.5 100 16.6 102230 73
2005-08-29 07:15:01 51°13.598 2°56.094 0.4 99 16.6 102230 73
2005-08-29 07:15:06 51°13.598 2°56.094 0.8 76 16.6 102230 73
2005-08-29 07:15:11 51°13.598 2°56.094 0.8 49 16.6 102230 73
2005-08-29 07:15:16 51°13.598 2°56.094 1.3 64 16.6 102230 73
2005-08-29 07:15:21 51°13.597 2°56.094 1.3 64 16.6 102230 73
2005-08-29 07:15:26 51°13.597 2°56.094 1.7 46 16.6 102230 73
2005-08-29 07:15:31 51°13.597 2°56.094 1.3 41 16.6 102230 73
2005-08-29 07:15:36 51°13.597 2°56.094 1.5 41 16.7 102230 73
2005-08-29 07:15:41 51°13.597 2°56.094 1.5 37 16.7 102230 73
2005-08-29 07:15:46 51°13.597 2°56.094 1.3 358 16.7 102230 73
2005-08-29 07:15:51 51°13.597 2°56.094 1.1 38 16.7 102230 73
2005-08-29 07:15:56 51°13.597 2°56.094 1.4 42 16.7 102230 73
2005-08-29 07:16:01 51°13.597 2°56.094 1.7 43 16.7 102230 73
2005-08-29 07:16:06 51°13.597 2°56.094 1.6 47 16.7 102230 73
2005-08-29 07:16:11 51°13.597 2°56.094 1 48 16.7 102230 73
2005-08-29 07:16:16 51°13.597 2°56.094 0.5 66 16.7 102230 73
2005-08-29 07:16:22 51°13.597 2°56.094 0.8 150 16.7 102230 73
2005-08-29 07:16:26 51°13.597 2°56.094 0.6 146 16.7 102230 73
2005-08-29 07:16:31 51°13.597 2°56.094 0.9 123 16.7 102230 73
2005-08-29 07:16:36 51°13.597 2°56.094 0.8 101 16.7 102230 73
2005-08-29 07:16:41 51°13.597 2°56.094 0.5 102 16.7 102230 73
2005-08-29 07:16:46 51°13.597 2°56.094 0.8 102 16.7 102230 73
2005-08-29 07:16:51 51°13.597 2°56.094 0.9 138 16.7 102230 73
2005-08-29 07:16:56 51°13.598 2°56.094 0.6 139 16.7 102230 73
2005-08-29 07:17:01 51°13.598 2°56.094 0.4 139 16.7 102230 73
2005-08-29 07:17:06 51°13.598 2°56.094 0.3 131 16.7 102230 73
2005-08-29 07:17:11 51°13.598 2°56.094 0.5 131 16.7 102230 73
2005-08-29 07:17:16 51°13.598 2°56.094 1 68 16.8 102230 73
2005-08-29 07:17:21 51°13.598 2°56.094 1.1 58 16.8 102230 73
2005-08-29 07:17:26 51°13.597 2°56.095 1 58 16.8 102230 72
2005-08-29 07:17:31 51°13.597 2°56.094 1 58 16.8 102230 72
2005-08-29 07:17:36 51°13.597 2°56.094 1.1 58 16.8 102230 72
2005-08-29 07:17:41 51°13.597 2°56.094 0.9 58 16.8 102230 72
2005-08-29 07:17:46 51°13.597 2°56.094 1 59 16.8 102230 72
2005-08-29 07:17:51 51°13.597 2°56.094 0.8 58 16.8 102230 72
2005-08-29 07:17:56 51°13.597 2°56.094 0.9 58 16.8 102230 72
2005-08-29 07:18:01 51°13.597 2°56.094 1.4 60 16.8 102230 72
2005-08-29 07:18:06 51°13.597 2°56.094 1.2 61 16.8 102230 73
2005-08-29 07:18:11 51°13.597 2°56.094 1.2 67 16.8 102230 73
2005-08-29 07:18:16 51°13.597 2°56.094 1.3 53 16.8 102230 73
2005-08-29 07:18:21 51°13.597 2°56.094 1.2 54 16.8 102230 73
2005-08-29 07:18:26 51°13.597 2°56.095 1.3 53 16.9 102230 72
2005-08-29 07:18:31 51°13.597 2°56.094 1.6 54 16.9 102230 72
2005-08-29 07:18:36 51°13.597 2°56.095 1.2 53 16.9 102230 72
2005-08-29 07:18:41 51°13.597 2°56.095 0.9 54 16.9 102230 72
2005-08-29 07:18:46 51°13.597 2°56.095 0.7 53 16.9 102230 72
2005-08-29 07:18:51 51°13.597 2°56.095 0.7 56 16.9 102230 72
2005-08-29 07:18:56 51°13.597 2°56.095 0.9 48 16.9 102230 72
2005-08-29 07:19:01 51°13.597 2°56.095 0.7 48 16.9 102230 72
2005-08-29 07:19:06 51°13.597 2°56.096 1.1 50 16.9 102230 72
2005-08-29 07:19:11 51°13.597 2°56.095 1.1 50 16.9 102230 72
2005-08-29 07:19:16 51°13.597 2°56.095 1.1 44 16.9 102230 72
2005-08-29 07:19:21 51°13.597 2°56.095 1 45 16.9 102230 72
2005-08-29 07:19:26 51°13.597 2°56.095 1.1 54 16.9 102230 72
2005-08-29 07:19:31 51°13.597 2°56.095 1.4 65 16.9 102230 72
2005-08-29 07:19:36 51°13.597 2°56.095 1.3 57 16.9 102230 72
2005-08-29 07:19:41 51°13.597 2°56.096 1.6 56 16.9 102230 72
2005-08-29 07:19:46 51°13.596 2°56.096 1.5 61 16.9 102230 72
2005-08-29 07:19:51 51°13.596 2°56.096 1.4 77 16.9 102230 72
2005-08-29 07:19:56 51°13.596 2°56.096 1.1 60 16.9 102230 72
2005-08-29 07:20:01 51°13.596 2°56.096 1 57 16.9 102230 72
2005-08-29 07:20:06 51°13.596 2°56.097 0.9 52 16.9 102230 72
2005-08-29 07:20:11 51°13.596 2°56.097 1.2 52 16.9 102230 72
2005-08-29 07:20:16 51°13.596 2°56.097 1.4 57 16.9 102230 72
2005-08-29 07:20:21 51°13.597 2°56.097 2.4 54 16.9 102230 72
2005-08-29 07:20:26 51°13.597 2°56.096 1.8 52 16.9 102230 72
2005-08-29 07:20:31 51°13.597 2°56.097 1.8 53 16.9 102230 72
2005-08-29 07:20:36 51°13.597 2°56.097 1.9 57 16.9 102230 72
2005-08-29 07:20:41 51°13.597 2°56.097 1.4 61 16.9 102230 72
2005-08-29 07:20:46 51°13.597 2°56.097 0.7 61 16.9 102230 72
2005-08-29 07:20:51 51°13.597 2°56.098 0.7 57 16.9 102230 72
2005-08-29 07:20:56 51°13.597 2°56.098 0.8 57 16.9 102230 72
2005-08-29 07:21:01 51°13.597 2°56.098 1.7 60 16.9 102230 72
2005-08-29 07:21:06 51°13.597 2°56.098 1.7 55 16.9 102230 72
2005-08-29 07:21:11 51°13.597 2°56.098 1.6 49 16.9 102230 72
2005-08-29 07:21:16 51°13.597 2°56.098 1.2 47 16.8 102230 72
2005-08-29 07:21:21 51°13.597 2°56.098 1.3 44 16.8 102230 72
2005-08-29 07:21:26 51°13.598 2°56.097 1.1 60 16.8 102230 72
2005-08-29 07:21:31 51°13.598 2°56.097 1.1 65 16.8 102230 72
2005-08-29 07:21:36 51°13.598 2°56.097 1.1 65 16.8 102230 72
2005-08-29 07:21:41 51°13.598 2°56.097 1.9 52 16.8 102230 72
2005-08-29 07:21:46 51°13.598 2°56.097 2.2 49 16.8 102230 72
2005-08-29 07:21:51 51°13.598 2°56.097 2.4 44 16.8 102230 72
2005-08-29 07:21:56 51°13.599 2°56.097 2.2 44 16.8 102230 72
2005-08-29 07:22:01 51°13.599 2°56.097 2.2 43 16.8 102230 72
2005-08-29 07:22:06 51°13.599 2°56.097 2 46 16.8 102230 72
2005-08-29 07:22:11 51°13.599 2°56.097 1.2 59 16.8 102230 72
2005-08-29 07:22:16 51°13.598 2°56.097 0.8 78 16.8 102230 72
2005-08-29 07:22:21 51°13.599 2°56.096 0.7 78 16.8 102230 72
2005-08-29 07:22:26 51°13.599 2°56.096 0.9 50 16.8 102230 72
2005-08-29 07:22:31 51°13.599 2°56.097 1.5 45 16.8 102230 72
2005-08-29 07:22:36 51°13.599 2°56.096 1.4 52 16.8 102230 72
2005-08-29 07:22:41 51°13.598 2°56.096 2.2 64 16.8 102230 72
2005-08-29 07:22:47 51°13.598 2°56.096 1.5 43 16.8 102230 72
2005-08-29 07:22:51 51°13.598 2°56.096 1.4 80 16.8 102230 72
2005-08-29 07:22:56 51°13.598 2°56.095 0.8 81 16.8 102230 72
2005-08-29 07:23:02 51°13.598 2°56.095 1.1 98 16.8 102230 72
2005-08-29 07:23:07 51°13.597 2°56.095 0.5 98 16.8 102230 72
2005-08-29 07:23:11 51°13.597 2°56.096 0.3 98 16.8 102230 72
2005-08-29 07:23:16 51°13.597 2°56.096 0.5 101 16.8 102230 72
2005-08-29 07:23:21 51°13.597 2°56.095 0.3 91 16.8 102230 72
2005-08-29 07:23:26 51°13.597 2°56.096 1.1 31 16.8 102230 72
2005-08-29 07:23:31 51°13.597 2°56.095 1.9 35 16.8 102230 72
2005-08-29 07:23:36 51°13.596 2°56.096 1.8 9 16.8 102230 72
2005-08-29 07:23:41 51°13.596 2°56.096 1.8 52 16.8 102230 72
2005-08-29 07:23:47 51°13.596 2°56.096 1.9 54 16.8 102230 72
2005-08-29 07:23:51 51°13.596 2°56.096 1.9 53 16.8 102230 72
2005-08-29 07:23:56 51°13.596 2°56.096 1 48 16.8 102230 72
2005-08-29 07:24:01 51°13.596 2°56.096 0.6 58 16.8 102230 72
2005-08-29 07:24:07 51°13.596 2°56.096 0.9 57 16.8 102230 72
2005-08-29 07:24:11 51°13.596 2°56.096 0.6 58 16.8 102230 72
2005-08-29 07:24:16 51°13.596 2°56.096 1.4 68 16.8 102230 72
2005-08-29 07:24:21 51°13.596 2°56.096 1.2 76 16.8 102230 72
2005-08-29 07:24:26 51°13.596 2°56.095 1.3 70 16.8 102230 72
2005-08-29 07:24:31 51°13.596 2°56.095 1.2 46 16.8 102230 72
2005-08-29 07:24:36 51°13.596 2°56.094 1.5 46 16.8 102230 72
2005-08-29 07:24:42 51°13.596 2°56.095 2 42 16.8 102230 72
2005-08-29 07:24:46 51°13.596 2°56.095 2 71 16.8 102230 72
2005-08-29 07:24:51 51°13.596 2°56.094 2 50 16.8 102230 72
2005-08-29 07:24:56 51°13.596 2°56.094 2.4 60 16.8 102230 72
2005-08-29 07:25:02 51°13.596 2°56.094 2.7 67 16.8 102230 72
2005-08-29 07:25:07 51°13.596 2°56.094 2.3 73 16.8 102230 72
2005-08-29 07:25:11 51°13.596 2°56.094 2.2 63 16.8 102230 72
2005-08-29 07:25:16 51°13.597 2°56.095 1.8 74 16.8 102230 72
2005-08-29 07:25:21 51°13.597 2°56.095 1.6 99 16.8 102230 72
2005-08-29 07:25:27 51°13.597 2°56.095 1 99 16.8 102230 72
2005-08-29 07:25:31 51°13.597 2°56.094 1.4 96 16.8 102230 72
2005-08-29 07:25:36 51°13.597 2°56.095 1.8 80 16.8 102230 72
2005-08-29 07:25:41 51°13.596 2°56.095 1.7 74 16.8 102230 72
2005-08-29 07:25:47 51°13.596 2°56.095 1.9 75 16.8 102230 72
2005-08-29 07:25:51 51°13.596 2°56.095 1.7 71 16.8 102230 72
2005-08-29 07:25:56 51°13.596 2°56.095 1.9 59 16.8 102230 72
2005-08-29 07:26:01 51°13.596 2°56.095 1.7 64 16.8 102230 72
2005-08-29 07:26:07 51°13.596 2°56.095 1.2 41 16.8 102230 72
2005-08-29 07:26:12 51°13.596 2°56.095 1.1 45 16.8 102230 72
2005-08-29 07:26:16 51°13.596 2°56.095 1.7 57 16.8 102230 71
2005-08-29 07:26:21 51°13.596 2°56.095 1.3 62 16.8 102230 71
2005-08-29 07:26:27 51°13.596 2°56.095 0.8 78 16.8 102230 71
2005-08-29 07:26:31 51°13.596 2°56.095 0.5 70 16.8 102230 71
2005-08-29 07:26:36 51°13.596 2°56.095 0.3 70 16.8 102230 71
2005-08-29 07:26:41 51°13.596 2°56.095 1.5 29 16.8 102230 71
2005-08-29 07:26:46 51°13.596 2°56.095 1.8 29 16.8 102230 71
2005-08-29 07:26:51 51°13.597 2°56.095 1.1 54 16.8 102230 71
2005-08-29 07:26:56 51°13.597 2°56.095 0.8 27 16.8 102230 71
2005-08-29 07:27:02 51°13.597 2°56.095 0.9 52 16.8 102230 71
2005-08-29 07:27:07 51°13.597 2°56.095 1.4 57 16.8 102230 71
2005-08-29 07:27:11 51°13.597 2°56.095 1.9 50 16.8 102230 71
2005-08-29 07:27:16 51°13.597 2°56.095 1.5 50 16.8 102230 72
2005-08-29 07:27:21 51°13.597 2°56.095 1.3 57 16.8 102230 72
2005-08-29 07:27:27 51°13.597 2°56.096 1.1 115 16.9 102230 72
2005-08-29 07:27:31 51°13.597 2°56.096 1 63 16.9 102230 72
2005-08-29 07:27:36 51°13.597 2°56.095 0.8 63 16.9 102230 72
2005-08-29 07:27:42 51°13.597 2°56.095 1.1 65 16.9 102230 72
2005-08-29 07:27:47 51°13.597 2°56.095 1 66 16.9 102230 72
2005-08-29 07:27:51 51°13.598 2°56.095 1 63 16.9 102230 72
2005-08-29 07:27:56 51°13.598 2°56.095 1.3 58 16.9 102230 72
2005-08-29 07:28:02 51°13.598 2°56.095 1.3 72 16.9 102230 72
2005-08-29 07:28:07 51°13.598 2°56.095 1.5 77 16.9 102230 72
2005-08-29 07:28:11 51°13.598 2°56.095 1.4 71 16.9 102230 72
2005-08-29 07:28:16 51°13.598 2°56.095 1.4 80 16.9 102230 72
2005-08-29 07:28:22 51°13.598 2°56.095 1.4 77 16.9 102230 72
2005-08-29 07:28:27 51°13.598 2°56.095 1.6 77 16.9 102230 72
2005-08-29 07:28:31 51°13.598 2°56.095 1.4 77 16.9 102230 72
2005-08-29 07:28:36 51°13.598 2°56.095 1.4 77 16.9 102240 72
2005-08-29 07:28:41 51°13.598 2°56.095 1.2 77 16.9 102240 72
2005-08-29 07:28:47 51°13.598 2°56.095 1.1 77 17 102230 72
2005-08-29 07:28:51 51°13.598 2°56.095 1 69 17 102230 72
2005-08-29 07:28:56 51°13.598 2°56.095 1.2 69 17 102230 72
2005-08-29 07:29:02 51°13.599 2°56.095 1 69 17 102230 72
2005-08-29 07:29:06 51°13.599 2°56.095 1.1 15 17 102240 72
2005-08-29 07:29:12 51°13.599 2°56.095 0.8 16 17 102240 72
2005-08-29 07:29:16 51°13.599 2°56.095 1 21 17 102230 72
2005-08-29 07:29:22 51°13.599 2°56.095 1.2 52 17 102230 72
2005-08-29 07:29:26 51°13.599 2°56.095 1.4 52 17 102240 72
2005-08-29 07:29:31 51°13.599 2°56.095 0.9 54 17 102240 72
2005-08-29 07:29:37 51°13.599 2°56.095 0.7 54 17 102230 72
2005-08-29 07:29:41 51°13.599 2°56.095 0.7 52 17 102230 72
2005-08-29 07:29:47 51°13.599 2°56.095 0.9 52 17 102230 72
2005-08-29 07:29:51 51°13.599 2°56.095 0.9 47 17 102230 72
2005-08-29 07:29:56 51°13.599 2°56.095 0.9 44 17 102240 72
2005-08-29 07:30:01 51°13.599 2°56.095 1 51 17 102240 72
2005-08-29 07:30:07 51°13.599 2°56.095 1.5 58 17 102240 72
2005-08-29 07:30:11 51°13.599 2°56.095 0.9 75 17 102240 72
2005-08-29 07:30:16 51°13.599 2°56.095 1 77 17.1 102240 72
2005-08-29 07:30:22 51°13.599 2°56.095 0.9 77 17.1 102240 72
2005-08-29 07:30:27 51°13.599 2°56.095 0.9 77 17.1 102240 72
2005-08-29 07:30:31 51°13.599 2°56.095 0.6 77 17.1 102240 72
2005-08-29 07:30:36 51°13.599 2°56.095 0.5 77 17.1 102240 72
2005-08-29 07:30:41 51°13.599 2°56.095 1.5 36 17.1 102240 72
2005-08-29 07:30:47 51°13.599 2°56.095 1.6 51 17.1 102240 72
2005-08-29 07:30:51 51°13.599 2°56.095 1.7 51 17.1 102240 72
2005-08-29 07:30:56 51°13.599 2°56.095 1.8 56 17.1 102240 72
2005-08-29 07:31:01 51°13.599 2°56.095 1.7 59 17.1 102240 72
2005-08-29 07:31:07 51°13.599 2°56.095 2 71 17.1 102240 72
2005-08-29 07:31:11 51°13.599 2°56.095 2.6 67 17.1 102240 72
2005-08-29 07:31:16 51°13.598 2°56.095 3 53 17.1 102240 72
2005-08-29 07:31:21 51°13.596 2°56.095 1.8 67 17.1 102240 72
2005-08-29 07:31:27 51°13.596 2°56.095 2.1 70 17.1 102240 72
2005-08-29 07:31:31 51°13.596 2°56.095 2.3 59 17.1 102240 72
2005-08-29 07:31:37 51°13.596 2°56.096 1.9 64 17.1 102240 71
2005-08-29 07:31:41 51°13.596 2°56.096 1.4 70 17.1 102240 71
2005-08-29 07:31:47 51°13.596 2°56.096 1.7 85 17.1 102240 71
2005-08-29 07:31:51 51°13.596 2°56.097 1.7 129 17.1 102240 71
2005-08-29 07:31:57 51°13.596 2°56.097 1.9 75 17.1 102240 71
2005-08-29 07:32:01 51°13.596 2°56.097 1.4 81 17.1 102240 71
2005-08-29 07:32:07 51°13.597 2°56.097 2 75 17.1 102240 71
2005-08-29 07:32:11 51°13.597 2°56.096 2.5 63 17.1 102240 71
2005-08-29 07:32:16 51°13.597 2°56.096 2.4 55 17.1 102240 71
2005-08-29 07:32:21 51°13.597 2°56.096 2.7 54 17.1 102240 71
2005-08-29 07:32:27 51°13.597 2°56.096 2.7 54 17.1 102240 71
2005-08-29 07:32:31 51°13.597 2°56.096 2.7 33 17.1 102240 71
2005-08-29 07:32:36 51°13.597 2°56.096 2.3 65 17.2 102240 71
2005-08-29 07:32:42 51°13.597 2°56.096 1.7 58 17.2 102240 71
2005-08-29 07:32:47 51°13.597 2°56.096 1.1 75 17.2 102240 70
2005-08-29 07:32:51 51°13.597 2°56.096 0.9 106 17.2 102240 70
2005-08-29 07:32:56 51°13.597 2°56.096 1.3 112 17.2 102240 70
2005-08-29 07:33:01 51°13.598 2°56.096 1.1 117 17.2 102240 70
2005-08-29 07:33:07 51°13.598 2°56.096 1 75 17.2 102240 70
2005-08-29 07:33:11 51°13.598 2°56.096 0.9 71 17.2 102240 70
2005-08-29 07:33:16 51°13.598 2°56.096 1 69 17.2 102240 70
2005-08-29 07:33:21 51°13.598 2°56.096 1 68 17.2 102240 70
2005-08-29 07:33:27 51°13.598 2°56.096 0.6 41 17.2 102240 70
2005-08-29 07:33:31 51°13.598 2°56.096 0.8 60 17.2 102240 70
2005-08-29 07:33:37 51°13.599 2°56.096 0.7 62 17.2 102240 70
2005-08-29 07:33:41 51°13.599 2°56.096 0.4 60 17.2 102240 70
2005-08-29 07:33:47 51°13.599 2°56.096 0.6 50 17.2 102240 70
2005-08-29 07:33:51 51°13.599 2°56.096 0.4 50 17.2 102240 70
2005-08-29 07:33:56 51°13.599 2°56.096 0.9 127 17.2 102240 70
2005-08-29 07:34:02 51°13.599 2°56.095 0.9 127 17.2 102240 70
2005-08-29 07:34:07 51°13.599 2°56.096 0.5 105 17.2 102240 71
2005-08-29 07:34:11 51°13.599 2°56.096 0.4 105 17.2 102240 71
2005-08-29 07:34:16 51°13.599 2°56.096 0.4 105 17.2 102240 71
2005-08-29 07:34:22 51°13.599 2°56.096 0.4 105 17.2 102240 71
2005-08-29 07:34:27 51°13.599 2°56.096 0.2 111 17.2 102240 71
2005-08-29 07:34:31 51°13.599 2°56.096 0.4 111 17.2 102240 71
2005-08-29 07:34:37 51°13.599 2°56.096 0.3 111 17.2 102240 71
2005-08-29 07:34:41 51°13.599 2°56.096 0.3 102 17.2 102240 71
2005-08-29 07:34:47 51°13.599 2°56.096 0.4 84 17.2 102240 71
2005-08-29 07:34:51 51°13.599 2°56.096 0.2 90 17.2 102240 71
2005-08-29 07:34:56 51°13.599 2°56.096 1.2 79 17.2 102240 71
2005-08-29 07:35:01 51°13.599 2°56.096 1.6 71 17.2 102240 71
2005-08-29 07:35:07 51°13.599 2°56.096 1.9 72 17.2 102240 71
2005-08-29 07:35:11 51°13.599 2°56.096 1.3 52 17.2 102240 71
2005-08-29 07:35:16 51°13.599 2°56.096 1 61 17.2 102240 71
2005-08-29 07:35:21 51°13.599 2°56.096 0.9 61 17.2 102240 71
2005-08-29 07:35:27 51°13.599 2°56.096 0.8 56 17.3 102240 71
2005-08-29 07:35:31 51°13.598 2°56.096 0.7 58 17.3 102240 71
2005-08-29 07:35:36 51°13.598 2°56.096 0.7 58 17.3 102240 71
2005-08-29 07:35:41 51°13.598 2°56.096 1.1 58 17.3 102240 71
2005-08-29 07:35:47 51°13.598 2°56.096 1 57 17.3 102240 71
2005-08-29 07:35:51 51°13.599 2°56.096 1.1 54 17.3 102240 71
2005-08-29 07:35:56 51°13.599 2°56.096 0.8 54 17.3 102240 71
2005-08-29 07:36:01 51°13.599 2°56.096 0.8 53 17.3 102240 71
2005-08-29 07:36:07 51°13.599 2°56.096 0.9 33 17.3 102240 71
2005-08-29 07:36:11 51°13.599 2°56.096 0.9 33 17.3 102240 71
2005-08-29 07:36:16 51°13.599 2°56.096 1.2 47 17.3 102240 71
2005-08-29 07:36:21 51°13.599 2°56.096 1.2 46 17.3 102240 71
2005-08-29 07:36:27 51°13.599 2°56.096 1.4 51 17.4 102240 71
2005-08-29 07:36:31 51°13.599 2°56.096 1.1 52 17.4 102240 71
2005-08-29 07:36:37 51°13.599 2°56.096 0.9 52 17.4 102240 71
2005-08-29 07:36:41 51°13.599 2°56.096 0.8 56 17.4 102240 71
2005-08-29 07:36:47 51°13.598 2°56.096 0.9 57 17.4 102240 71
2005-08-29 07:36:51 51°13.598 2°56.096 0.7 58 17.4 102240 71
2005-08-29 07:36:56 51°13.598 2°56.096 0.6 58 17.4 102240 71
2005-08-29 07:37:02 51°13.598 2°56.096 0.3 59 17.4 102240 71
2005-08-29 07:37:07 51°13.598 2°56.096 0.3 94 17.4 102240 71
2005-08-29 07:37:12 51°13.598 2°56.096 0.5 111 17.4 102240 71
2005-08-29 07:37:16 51°13.598 2°56.096 1.3 287 17.4 102240 71
2005-08-29 07:37:22 51°13.598 2°56.096 1.3 334 17.4 102240 71
2005-08-29 07:37:27 51°13.598 2°56.096 0.6 351 17.4 102240 71
2005-08-29 07:37:31 51°13.598 2°56.096 0.3 343 17.4 102240 71
2005-08-29 07:37:36 51°13.598 2°56.096 0.3 14 17.5 102240 70
2005-08-29 07:37:41 51°13.598 2°56.096 0.7 18 17.5 102240 70
2005-08-29 07:37:47 51°13.598 2°56.096 1.4 19 17.5 102250 70
2005-08-29 07:37:51 51°13.597 2°56.096 1.1 28 17.5 102250 70
2005-08-29 07:37:56 51°13.597 2°56.096 1 27 17.5 102240 70
2005-08-29 07:38:02 51°13.597 2°56.096 0.9 27 17.5 102240 70
2005-08-29 07:38:06 51°13.597 2°56.096 0.9 29 17.5 102250 70
2005-08-29 07:38:11 51°13.597 2°56.096 0.7 29 17.5 102250 70
2005-08-29 07:38:16 51°13.597 2°56.096 0.5 29 17.5 102240 71
2005-08-29 07:38:22 51°13.597 2°56.096 1 29 17.5 102240 71
2005-08-29 07:38:27 51°13.597 2°56.096 1 29 17.5 102250 70
2005-08-29 07:38:32 51°13.597 2°56.096 1 29 17.5 102250 70
2005-08-29 07:38:37 51°13.597 2°56.096 0.8 30 17.6 102250 71
2005-08-29 07:38:41 51°13.597 2°56.096 0.5 30 17.6 102250 71
2005-08-29 07:38:47 51°13.597 2°56.096 0.9 29 17.6 102250 71
2005-08-29 07:38:51 51°13.597 2°56.096 1 29 17.6 102250 71
2005-08-29 07:38:57 51°13.598 2°56.097 0.6 30 17.6 102250 71
2005-08-29 07:39:02 51°13.598 2°56.097 1.7 36 17.6 102250 71
2005-08-29 07:39:07 51°13.598 2°56.097 1.6 32 17.7 102250 70
2005-08-29 07:39:11 51°13.598 2°56.097 2 358 17.7 102250 70
2005-08-29 07:39:16 51°13.598 2°56.097 1.3 22 17.7 102250 70
2005-08-29 07:39:21 51°13.598 2°56.097 1.2 37 17.7 102250 70
2005-08-29 07:39:27 51°13.598 2°56.097 0.5 28 17.7 102250 70
2005-08-29 07:39:31 51°13.598 2°56.097 1.4 20 17.7 102250 70
2005-08-29 07:39:36 51°13.598 2°56.096 1.3 19 17.7 102250 70
2005-08-29 07:39:41 51°13.598 2°56.097 0.9 15 17.7 102250 70
2005-08-29 07:39:47 51°13.598 2°56.097 0.7 16 17.7 102250 70
2005-08-29 07:39:51 51°13.598 2°56.097 1.4 44 17.7 102250 70
2005-08-29 07:39:56 51°13.598 2°56.097 2.3 45 17.8 102250 70
2005-08-29 07:40:01 51°13.598 2°56.097 1.9 55 17.8 102250 70
2005-08-29 07:40:07 51°13.598 2°56.097 2 48 17.8 102250 70
2005-08-29 07:40:11 51°13.598 2°56.097 2.2 47 17.8 102250 70
2005-08-29 07:40:16 51°13.598 2°56.097 2.1 41 17.8 102250 70
2005-08-29 07:40:21 51°13.598 2°56.097 1.9 52 17.8 102250 70
2005-08-29 07:40:27 51°13.598 2°56.097 1.2 67 17.8 102250 70
2005-08-29 07:40:31 51°13.598 2°56.096 1.1 73 17.8 102250 70
2005-08-29 07:40:37 51°13.598 2°56.097 1.4 76 17.8 102250 69
2005-08-29 07:40:41 51°13.598 2°56.097 0.6 76 17.8 102250 69
2005-08-29 07:40:47 51°13.598 2°56.097 1.1 140 17.8 102250 69
2005-08-29 07:40:51 51°13.598 2°56.097 1.2 126 17.8 102250 69
2005-08-29 07:40:57 51°13.598 2°56.097 1.5 154 17.9 102250 68
2005-08-29 07:41:02 51°13.598 2°56.097 0.8 153 17.9 102250 68
2005-08-29 07:41:07 51°13.598 2°56.097 0.6 150 17.9 102250 68
2005-08-29 07:41:11 51°13.598 2°56.097 0.6 150 17.9 102250 68
2005-08-29 07:41:16 51°13.598 2°56.097 0.4 151 17.9 102250 68
2005-08-29 07:41:22 51°13.598 2°56.097 0.3 150 17.9 102250 68
2005-08-29 07:41:27 51°13.598 2°56.097 0.5 88 17.9 102250 68
2005-08-29 07:41:31 51°13.598 2°56.097 0.9 75 17.9 102250 68
2005-08-29 07:41:36 51°13.598 2°56.097 0.8 74 17.9 102250 68
2005-08-29 07:41:41 51°13.598 2°56.097 0.9 42 17.9 102250 68
2005-08-29 07:41:47 51°13.598 2°56.096 1 21 17.9 102250 68
2005-08-29 07:41:51 51°13.599 2°56.097 0.8 28 17.9 102250 68
2005-08-29 07:41:56 51°13.599 2°56.097 0.9 25 18 102250 68
2005-08-29 07:42:02 51°13.599 2°56.097 1 26 18 102250 68
2005-08-29 07:42:07 51°13.599 2°56.097 1.3 31 18 102250 68
2005-08-29 07:42:12 51°13.599 2°56.097 1.4 28 18 102250 68
2005-08-29 07:42:16 51°13.599 2°56.097 1.2 30 18 102250 68
2005-08-29 07:42:21 51°13.599 2°56.097 1.3 63 18 102250 68
2005-08-29 07:42:27 51°13.599 2°56.097 1.3 57 18 102250 68
2005-08-29 07:42:32 51°13.598 2°56.097 1 13 18 102250 68
2005-08-29 07:42:36 51°13.599 2°56.097 1 4 18 102250 68
2005-08-29 07:42:41 51°13.598 2°56.097 0.5 21 18 102250 68
2005-08-29 07:42:46 51°13.599 2°56.097 0.6 22 18 102250 68
2005-08-29 07:42:51 51°13.599 2°56.097 0.9 22 18 102250 68
2005-08-29 07:42:56 51°13.599 2°56.097 0.9 21 18 102250 68
2005-08-29 07:43:02 51°13.599 2°56.097 0.8 22 18 102250 68
2005-08-29 07:43:07 51°13.599 2°56.097 1 58 18 102250 68
2005-08-29 07:43:11 51°13.599 2°56.097 0.7 57 18 102250 68
2005-08-29 07:43:17 51°13.598 2°56.097 1.7 43 18.1 102250 68
2005-08-29 07:43:22 51°13.599 2°56.097 1.9 39 18.1 102250 68
2005-08-29 07:43:27 51°13.599 2°56.097 1.6 13 18.1 102250 68
2005-08-29 07:43:31 51°13.599 2°56.097 1.3 32 18.1 102250 68
2005-08-29 07:43:36 51°13.599 2°56.097 1.4 32 18.1 102250 68
2005-08-29 07:43:41 51°13.599 2°56.097 1.5 66 18.1 102250 68
2005-08-29 07:43:47 51°13.599 2°56.097 1.5 76 18.1 102250 68
2005-08-29 07:43:51 51°13.599 2°56.097 1.9 66 18.1 102250 68
2005-08-29 07:43:56 51°13.599 2°56.097 1.3 69 18.1 102250 68
2005-08-29 07:44:01 51°13.599 2°56.097 1.3 69 18.1 102250 68
2005-08-29 07:44:07 51°13.599 2°56.097 1.5 65 18.1 102250 68
2005-08-29 07:44:11 51°13.599 2°56.097 1.8 62 18.1 102250 68
2005-08-29 07:44:16 51°13.599 2°56.096 1.6 62 18.1 102250 67
2005-08-29 07:44:22 51°13.599 2°56.096 1.6 63 18.1 102250 67
2005-08-29 07:44:27 51°13.599 2°56.096 1.5 64 18.2 102250 67
2005-08-29 07:44:31 51°13.599 2°56.096 1.3 68 18.2 102250 67
2005-08-29 07:44:36 51°13.599 2°56.096 1.2 69 18.2 102250 67
2005-08-29 07:44:41 51°13.599 2°56.097 1.6 54 18.2 102250 67
2005-08-29 07:44:47 51°13.599 2°56.096 1 60 18.2 102250 67
2005-08-29 07:44:51 51°13.599 2°56.097 1.4 58 18.2 102250 67
2005-08-29 07:44:56 51°13.599 2°56.096 1.8 58 18.2 102250 67
2005-08-29 07:45:01 51°13.599 2°56.096 2.3 60 18.2 102250 67
2005-08-29 07:45:07 51°13.599 2°56.096 2.3 61 18.1 102250 66
2005-08-29 07:45:11 51°13.598 2°56.096 2.2 60 18.1 102250 66
2005-08-29 07:45:16 51°13.598 2°56.096 2 70 18.1 102250 66
2005-08-29 07:45:21 51°13.598 2°56.096 1.9 68 18.1 102250 66
2005-08-29 07:45:27 51°13.598 2°56.096 2.2 75 18.1 102250 66
2005-08-29 07:45:31 51°13.598 2°56.096 1.8 70 18.1 102250 66
2005-08-29 07:45:37 51°13.598 2°56.096 1.6 70 18.1 102250 66
2005-08-29 07:45:41 51°13.598 2°56.096 2 67 18.1 102250 66
2005-08-29 07:45:47 51°13.598 2°56.096 2.1 69 18.1 102250 66
2005-08-29 07:45:51 51°13.598 2°56.096 2.2 84 18.1 102250 66
2005-08-29 07:45:56 51°13.598 2°56.096 2.1 59 18.1 102250 67
2005-08-29 07:46:02 51°13.598 2°56.096 2.6 70 18.1 102250 67
2005-08-29 07:46:07 51°13.598 2°56.096 1.9 76 18.1 102250 67
2005-08-29 07:46:11 51°13.598 2°56.096 2.3 62 18.1 102250 67
2005-08-29 07:46:16 51°13.598 2°56.096 1.5 54 18.1 102250 67
2005-08-29 07:46:22 51°13.598 2°56.096 2.6 53 18.1 102250 67
2005-08-29 07:46:27 51°13.598 2°56.096 2.2 56 18.1 102250 67
2005-08-29 07:46:31 51°13.598 2°56.096 2.3 54 18.1 102250 67
2005-08-29 07:46:36 51°13.598 2°56.096 2.3 54 18 102250 67
2005-08-29 07:46:41 51°13.598 2°56.096 2.1 52 18 102250 67
2005-08-29 07:46:47 51°13.598 2°56.096 2.5 60 18 102250 67
2005-08-29 07:46:52 51°13.598 2°56.096 2 70 18 102250 67
2005-08-29 07:46:56 51°13.598 2°56.096 2.2 60 18 102250 67
2005-08-29 07:47:01 51°13.598 2°56.096 2 59 18 102250 67
2005-08-29 07:47:07 51°13.598 2°56.096 2.1 61 18 102250 67
2005-08-29 07:47:11 51°13.598 2°56.096 2.3 63 18 102250 67
2005-08-29 07:47:16 51°13.598 2°56.096 2.1 63 18 102250 67
2005-08-29 07:47:21 51°13.598 2°56.096 2.1 63 18 102250 67
2005-08-29 07:47:27 51°13.598 2°56.096 2 60 18 102250 67
2005-08-29 07:47:31 51°13.598 2°56.096 2.4 60 18 102250 67
2005-08-29 07:47:37 51°13.598 2°56.096 2.1 61 17.9 102250 67
2005-08-29 07:47:41 51°13.598 2°56.096 2.5 59 17.9 102250 67
2005-08-29 07:47:47 51°13.599 2°56.097 2.5 57 17.9 102250 67
2005-08-29 07:47:51 51°13.599 2°56.097 2.8 66 17.9 102250 67
2005-08-29 07:47:57 51°13.599 2°56.097 2.6 58 17.9 102250 67
2005-08-29 07:48:01 51°13.599 2°56.097 2.9 57 17.9 102250 67
2005-08-29 07:48:07 51°13.599 2°56.097 3.5 51 17.9 102250 68
2005-08-29 07:48:11 51°13.599 2°56.097 2.5 58 17.9 102250 68
2005-08-29 07:48:16 51°13.599 2°56.097 2.3 75 17.9 102250 68
2005-08-29 07:48:21 51°13.599 2°56.097 2.1 64 17.9 102250 68
2005-08-29 07:48:27 51°13.599 2°56.097 2 64 17.9 102250 68
2005-08-29 07:48:31 51°13.599 2°56.097 2.6 60 17.9 102250 68
2005-08-29 07:48:36 51°13.599 2°56.097 2.9 57 17.9 102250 68
2005-08-29 07:48:41 51°13.599 2°56.097 2.3 58 17.9 102250 68
2005-08-29 07:48:47 51°13.599 2°56.097 2.2 47 17.8 102250 68
2005-08-29 07:48:51 51°13.599 2°56.097 2.4 50 17.8 102250 68
2005-08-29 07:48:56 51°13.599 2°56.097 1.9 48 17.8 102250 68
2005-08-29 07:49:01 51°13.599 2°56.097 2.3 86 17.8 102250 68
2005-08-29 07:49:07 51°13.599 2°56.097 1.2 71 17.8 102250 68
2005-08-29 07:49:11 51°13.599 2°56.097 1.6 77 17.8 102250 68
2005-08-29 07:49:16 51°13.599 2°56.097 1.7 39 17.8 102250 68
2005-08-29 07:49:22 51°13.599 2°56.097 1.5 38 17.8 102250 68
2005-08-29 07:49:27 51°13.599 2°56.097 1.4 49 17.8 102250 68
2005-08-29 07:49:31 51°13.599 2°56.097 2.1 42 17.8 102250 68
2005-08-29 07:49:36 51°13.599 2°56.097 1.9 43 17.8 102250 68
2005-08-29 07:49:41 51°13.599 2°56.097 2.3 55 17.8 102250 68
2005-08-29 07:49:47 51°13.599 2°56.097 2.7 62 17.8 102250 68
2005-08-29 07:49:52 51°13.599 2°56.097 2.3 58 17.8 102250 68
2005-08-29 07:49:56 51°13.599 2°56.097 1.6 53 17.8 102250 68
2005-08-29 07:50:01 51°13.599 2°56.096 2 53 17.8 102250 68
2005-08-29 07:50:07 51°13.599 2°56.096 1.6 87 17.8 102250 68
2005-08-29 07:50:11 51°13.599 2°56.096 2 85 17.8 102250 68
2005-08-29 07:50:17 51°13.599 2°56.096 2 84 17.9 102250 68
2005-08-29 07:50:21 51°13.599 2°56.096 1.8 75 17.9 102250 68
2005-08-29 07:50:27 51°13.599 2°56.096 2.2 53 17.9 102250 68
2005-08-29 07:50:31 51°13.599 2°56.096 2.4 66 17.9 102250 68
2005-08-29 07:50:37 51°13.599 2°56.096 2.5 55 17.9 102250 67
2005-08-29 07:50:41 51°13.599 2°56.096 2.6 56 17.9 102250 67
2005-08-29 07:50:47 51°13.599 2°56.096 2.5 48 17.9 102250 67
2005-08-29 07:50:51 51°13.599 2°56.096 1.4 66 17.9 102250 67
2005-08-29 07:50:56 51°13.599 2°56.096 1.1 75 17.9 102250 67
2005-08-29 07:51:02 51°13.598 2°56.096 1.4 58 17.9 102250 67
2005-08-29 07:51:07 51°13.598 2°56.096 1.8 67 17.9 102250 67
2005-08-29 07:51:11 51°13.598 2°56.096 1.7 67 17.9 102250 67
2005-08-29 07:51:16 51°13.598 2°56.096 2.1 58 17.9 102250 67
2005-08-29 07:51:21 51°13.598 2°56.096 2.3 58 17.9 102250 67
2005-08-29 07:51:27 51°13.598 2°56.096 1.9 64 17.9 102250 67
2005-08-29 07:51:31 51°13.598 2°56.096 1.4 73 17.9 102250 67
2005-08-29 07:51:36 51°13.598 2°56.096 1.5 72 17.9 102250 67
2005-08-29 07:51:41 51°13.598 2°56.096 1.3 94 17.9 102250 67
2005-08-29 07:51:47 51°13.599 2°56.096 1.3 93 17.9 102250 67
2005-08-29 07:51:51 51°13.599 2°56.096 0.9 94 17.9 102250 67
2005-08-29 07:51:56 51°13.599 2°56.096 0.7 86 17.9 102250 67
2005-08-29 07:52:01 51°13.599 2°56.096 1 88 17.9 102250 67
2005-08-29 07:52:07 51°13.599 2°56.096 0.5 72 17.9 102250 67
2005-08-29 07:52:12 51°13.599 2°56.096 0.4 112 17.9 102250 67